Cape Newenham Lrrs Airport
PAEH : now visible

Airfield :











YOU CAN JOIN US ON...

 
LOGIN :

Register | Disclaimer

   EN    FR    IT 

 









Legend :    VFR   Marginal VFR   IFR   Intensive IFR   Very Intensive IFR
Visi :
Ceiling :
>= 8 km
>= 3000ft
5 to 8 km
1000 to 3000 ft
1500m to 5 km
500 to 1000 ft
800 to 1500m
200 to 500 ft
< 800m
< 200 ft
Symbols :   Thunderstorms  Fog  Heavy snow  Heavy precipitations  Wind > 20 kt






- Airport Elevation : 541 ft
- IATA code : EHM


PAEH - Cape Newenham Lrrs

CURRENT METAR :
  • 230155Z AUTO 11015G38KT 060V160 8SM -RA OVC010 05/03 A2978 RMK AO2 PK WND 11041/0138 DZB0033E0056RAB0056 SLP091 P0002 T00480028

EXPIRED METARs :
  • 230109Z AUTO 11021G30KT 10SM -RA OVC013 05/02 A2980 RMK AO2 PK WND 11033/0058 SLP098
  • 230055Z AUTO 11020G49KT 10SM -DZ OVC015 05/02 A2982 RMK AO2 DZB2348E0003B0033RAB0003E0033 SLP103 P0000 T00470019
  • 222355Z AUTO 11023G37KT 10SM -DZ OVC018 05/01 A2984 RMK AO2 PK WND 11037/2351 RAB2243E2348DZB2348 SLP110 P0000 60000 T00490014 10039 20026 58021

Expired Forecast.
PAZA FIR / North America



MET'MAP, your aeronautical weather chart ! - Copyright ORBIFLY December 2007 - Disclaimer

ORBIFLY MET'MAP TEAM :

Programming & Development : Alexandra Zaïnal
Concept & original design : Baudouin d'Aumeries
Assistance for programming : Marc-Olivier Méhu
Technical & hardware support : Manuel Goepfert

Contact : metmap@orbifly.com




SOURCES & CREDITS :

   NOAA       Earth
Advisory